Location: Bourr�ac
(43.1036°N, 0.0013°E)
Time: 18:48:23
(UTC+00:00)

Daily predictions for brighter satellites

Satellite Brightness Start Highest point End
(mag) Time Altitude Azimuth Time Altitude Azimuth Time Altitude Azimuth
Cosmos 1697 Rocket 2.8 17:34:49 10° S 17:40:20 57° ESE 17:45:52 10° NNE
Cosmos 1125 Rocket 4.1 17:35:48 10° SSE 17:40:36 37° ESE 17:45:25 10° NE
SME Rocket 4.2 17:39:26 10° N 17:43:17 52° WNW 17:48:18 10° SSW
Cosmos 1908 4.3 17:41:23 10° SE 17:44:31 24° E 17:47:40 10° NE
Cosmos 1356 3.5 17:45:30 10° N 17:48:49 51° ENE 17:52:08 10° SSE
Meteor 1-24 Rocket 4.2 17:44:07 10° NNW 17:49:48 70° W 17:55:38 10° S
Cosmos 2227 Rocket 2.2 17:44:46 10° NNW 17:50:29 87° ENE 17:56:09 10° SSE
Cosmos 494 Rocket 4.2 17:48:28 10° N 17:53:33 49° ENE 17:58:33 10° SE
Landsat 5 3.8 17:50:19 10° NNE 17:54:32 50° E 17:58:51 10° S
MOS 1-B Rocket 4.4 17:49:57 10° NNE 17:56:41 48° E 18:02:29 10° S
CZ-2C R/B 3.0 17:51:27 10° NNE 17:56:55 49° E 18:02:16 10° S
Timation 2 Rocket 4.2 17:50:26 10° NNW 17:57:21 74° ENE 18:04:04 10° SSE
Cosmos 1726 3.7 17:53:58 10° SSW 17:57:22 39° WNW 18:00:48 10° N
SKYMED 2 3.6 17:53:14 10° NNE 17:57:32 57° E 18:01:47 10° S
Aureole 2 4.2 17:56:22 10° NNW 17:59:20 77° WSW 18:02:28 10° SSE
Cosmos 1470 3.7 17:55:28 10° SSW 17:59:20 52° W 18:03:14 10° N
Okean O Rocket 1.6 17:57:12 10° SSE 18:01:28 61° ENE 18:05:46 10° N
Cosmos 2084 Rocket 4.3 17:57:57 10° WSW 18:01:40 44° NW 18:05:25 10° NNE
Cosmos 1758 3.4 18:02:12 10° S 18:06:11 81° W 18:10:11 10° N
CZ-4 R/B 2.2 18:04:23 10° SE 18:07:47 28° ENE 18:11:17 10° N
GPS 2-04 Rocket1 4.5 18:05:22 10° WSW 18:08:19 22° SSW 18:11:10 10° SE
YAOGAN 1 3.3 18:04:45 10° SE 18:08:33 31° ENE 18:12:23 10° N
Cosmos 1703 3.9 18:05:18 10° N 18:08:53 32° ENE 18:12:25 10° SE
SL-16 R/B 3.8 18:06:46 10° ESE 18:08:50 13° E 18:08:50 13° E
Okean-O 4.0 18:07:42 12° ESE 18:10:23 20° ENE 18:13:36 10° NNE
Cosmos 1455 Rocket 3.6 18:08:48 10° SSE 18:12:46 34° E 18:16:46 10° NNE
Cosmos 2082 3.6 18:10:03 10° NNW 18:15:40 70° ENE 18:21:15 10° SSE
Spot 2 4.1 18:12:50 10° SSE 18:16:45 50° ENE 18:20:48 10° N
Cosmos 1953 2.4 18:12:56 10° S 18:16:51 51° E 18:20:48 10° NNE
Cosmos 2150 Rocket 4.1 18:14:39 10° SSW 18:20:06 87° WNW 18:25:33 10° NNE
H-2A R/B 2.7 18:17:08 10° NE 18:20:43 29° E 18:24:18 10° SSE
Cosmos 1727 Rocket 4.1 18:15:14 10° N 18:21:29 83° W 18:27:39 10° S
Meteor 1-21 Rocket 4.3 18:18:40 10° N 18:24:29 67° ENE 18:30:21 10° SSE
Cosmos 1544 Rocket 4.4 18:22:15 10° SSE 18:26:02 28° E 18:29:51 10° NNE
H-2A R/B 2.8 18:25:22 10° S 18:30:35 58° W 18:35:57 10° NNW
ATLAS 3B R/B 3.2 18:27:00 10° SW 18:33:25 57° NW 18:40:09 10° NNE
Cosmos 1300 3.8 18:30:54 10° SSE 18:38:01 - NNE 18:33:11 25° ESE
Cosmos 405 Rocket 2.8 18:34:40 10° N 18:38:32 56° ENE 18:42:27 10° SSE
CZ-4B R/B 4.2 18:34:16 10° S 18:39:42 50° W 18:45:14 10° NNW
ATLAS 5 CENTAUR R/B 1.3 18:39:48 10° SSW 18:43:34 60° ESE 18:45:39 27° NE
COSMO-SKYMED 1 3.9 18:41:27 10° N 18:45:34 42° WNW 18:49:40 10° SW
NOSS 3-1 (C) 4.2 18:44:32 10° SSE 18:47:41 24° SE 18:47:41 24° SE
Cosmos 2369 4.3 18:45:50 10° SW 18:51:24 59° WNW 18:57:02 10° NNE
Feng Yun 1-1 Rocket 4.4 18:46:03 10° S 18:51:31 77° WSW 18:57:10 10° NNW
HJ-1C 3.1 18:51:07 38° SSE 18:52:14 78° ENE 18:55:30 10° N
SL-8 R/B 4.0 18:48:00 10° SW 18:52:35 47° SE 18:53:45 39° ESE
IRS-1C Rocket 4.0 18:50:33 10° SSE 18:55:46 70° ENE 19:01:01 10° N
Cosmos 1605 Rocket 4.2 18:50:36 10° SSE 18:56:27 46° E 19:02:25 10° NNE
H-2A R/B 3.0 18:52:13 10° S 18:56:36 62° WSW 19:00:52 10° NNW
SL-08 RB Rocket 4.0 18:55:04 10° S 18:59:32 66° WSW 19:04:06 10° NNW
Cosmos 1892 Rocket 4.0 18:55:15 10° NNW 18:59:41 62° W 19:04:03 10° S
Cosmos 1535 Rocket 4.4 18:55:00 10° S 19:01:08 70° E 19:07:25 10° NNE
Cosmos 1980 Rocket 2.7 18:59:58 10° SW 19:05:32 60° WNW 19:11:11 10° NNE
X-37B 1.1 19:05:27 10° W 19:08:08 57° WNW 19:08:08 57° WNW
Cosmos 489 Rocket 4.3 19:03:10 10° NNW 19:09:24 82° ENE 19:13:45 21° SSE
Cosmos 2263 Rocket 2.0 19:04:57 10° NNW 19:10:32 76° ENE 19:12:46 37° SE
CSL-04 Debris 4.0 19:08:41 29° SSE 19:11:28 69° ENE 19:16:50 10° N
Cosmos 1269 Rocket 3.9 19:07:12 10° NNW 19:12:31 78° ENE 19:14:31 39° SSE
CZ-2C R/B 3.3 19:14:51 10° SSW 19:15:35 13° SSW 19:15:35 13° SSW
Cosmos 724 4.1 19:19:46 10° NNW 19:25:46 79° ENE 19:26:54 59° SE
Cosmos 1626 Rocket 3.8 19:24:42 10° N 19:28:11 57° N 19:28:11 57° N
Cosmos 371 Rocket 3.3 19:24:40 10° SSW 19:28:53 67° S 19:28:53 67° S
CSL-04 Rocket 3.6 19:30:10 41° SSE 19:32:12 87° WSW 19:37:48 10° NNW
Iridium 4 Rocket 4.4 19:28:37 10° NNW 19:32:45 42° W 19:37:11 10° SSW
MetOp-A 4.3 19:31:02 27° S 19:33:58 73° WSW 19:39:21 10° NNW
Gbstr 26 Del rocket 4.4 19:34:41 10° WNW 19:42:13 86° NNE 19:43:59 59° ESE
CZ-4 R/B 3.7 19:39:39 10° SSW 19:42:46 22° W 19:45:57 10° NW
Cosmos 1844 Rocket 4.1 19:41:24 10° N 19:44:20 26° NNE 19:44:20 26° NNE
Okean-O 3.7 19:45:17 33° SW 19:46:33 42° W 19:50:47 10° NNW
SL-16 R/B 2.6 19:46:42 10° SSW 19:50:51 51° SSW 19:50:51 51° SSW
H-2A R/B 4.2 19:53:14 10° NNW 19:56:34 24° WNW 19:59:53 10° WSW
Cosmos 2322 Rocket 4.4 20:04:45 10° SSW 20:05:21 13° SSW 20:05:21 13° SSW
Cosmos 2344 4.2 20:04:27 10° NW 20:13:45 77° NE 20:15:56 63° ESE
Lacrosse 4 Rocket 4.2 20:11:46 10° NNW 20:12:21 14° NNW 20:12:21 14° NNW
ATLAS 5 CENTAUR R/B 4.2 20:25:44 10° W 20:27:13 16° WNW 20:27:13 16° WNW
